SL-8 DEB, 1479

Orbit data source: Space-Track

SL-8 DEB, 1479 is space debris in LEO originally from a launch on Mon, 15 Mar 1965 UTC launched from the Tyuratam Missile And Space Complex (TTMTR). Debris objects in space refer to the collection of defunct objects orbiting the Earth. Examples of debris include non-operational satellites, rocket bodies, and fragments generated from explosions, collisions, or faulty payload assembly.

Loading next visibility...
Identifier
1479, 1965-020BD
Orbit
LEO
Country
Flag of CISCIS
Related business
Manufacturer
Unknown
Mission
Spacecraft
Bus & Motor
Unknown
Mass
Unknown
Launch date (UTC)
1965-03-15 (61 years ago)
Launch vehicle
Unknown
Launch site
Tyuratam Missile And Space Complex (TTMTR)
Object type
Payload
Rocket body
Debris
Shape & HBR
Unknown shape, 0.1 m
Radar Cross Section
Small (<0.1 m²)

Expand to show TLE details & history
Last TLE update: 11 hours ago

TLE from 11 hours ago
0 SL-8 DEB
1 01479U 65020BD  25310.69663743  .00001136  00000-0  24768-2 0  9999
2 01479  56.0291 197.6283 0741623 118.4637 249.3016 12.59884121768327
Epoch: 2025-11-06T16:43Z
TLE epoch observation values (Epoch: 2025-11-06T16:43:09.473Z)
Latitude
-0.00006°
Longitude
-99.31246°
Altitude
1,665.023 km
Speed
6.932 km/s
True Right ascension
13h 10m 30s
True Declination
0° 00' 00"
Sunlit
Object was in daylight at epoch
Visualization orbit readout
Latitude
Unknown
Longitude
Unknown
Altitude
Unknown
Speed
Unknown
Apparent Right ascension
Unknown
Apparent Declination
Unknown
Sunlit
N/A
Visualization observer readout
Local Sidereal Time
00:07:16
Azimuth
Unknown
Elevation
Unknown
Doppler factor
Unknown
Orbital elements
Apogee altitude
2,001.816 km
Perigee altitude
844.679 km
Semi-major axis
7,801.384 km
Eccentricity
0.07416
Inclination
56.0291°
RAAN
197.6283°
Arg. of periapsis
118.4637°
True anomaly
241.6272°
Mean anomaly
249.3016°
Eccentric anomaly
245.43695°
Mean motion
3.14982 °/min
Orbital period
114.29 mins
BSTAR
0.0024768
Loading maneuver chart data...
Computing Atmospheric mass density...
Loading historical data...
Loading historical data...
Loading historical data...
Loading historical data...
Loading historical data...
Loading historical data...
Loading historical data...

Documentation

Showing up to 5 results
|